Вернуться в каталог

CSSHQ SUBSATELLITE 3

АктивенНаукаVLEO
NORAD 69673·PAYLOAD·🇨🇳 China
Это название спутника еще не подтверждено официальными источниками.

Запущен Feb 7, 2026 с Jiuquan Satellite Launch Center

Loading…

Ближайшие Пролёты (ближайшие 24 часа)

TLE

СвежийSource: Space-Track

Эпоха: Sep 14, 2026, 12:30 UTC

1 69673U 26024H   26257.52149844  .00000820  00000-0  10397-3 0  9997
2 69673  49.9931 216.3209 0005536  22.4219 337.6963 14.91966425 32504

Отслеживайте CSSHQ SUBSATELLITE 3 в реальном времени с AllMySat

Download on the App Store